Change the Weather History Date:

Sunday, February 9, 2014

  Actual Average (KAKO) Record (KAKO)
Temperature  
Mean Temperature 14 °F 30 °F  
Max Temperature 18 °F 42 °F 73 °F (1976)
Min Temperature 10 °F 18 °F -11 °F (1982)
Degree Days  
Heating Degree Days 51    
Month to date heating degree days  
Cooling Degree Days 0    
Month to date cooling degree days  
Moisture  
Dew Point 10 °F    
Average Humidity 89    
Maximum Humidity 95    
Minimum Humidity 80    
Precipitation  
Precipitation 0.00 in 0.02 in 0.18 in (1953)
Month to date precipitation 0.13  
Year to date precipitation 0.43  
Sea Level Pressure  
Sea Level Pressure 30.05 in    
Wind  
Wind Speed 10 mph (East)    
Max Wind Speed 15 mph    
Max Gust Speed -    
Visibility 6 miles    
Events Snow    
T = Trace of Precipitation, MM = Missing Value Source: NWS Daily Summary

Daily Weather History Graph

Daily Weather History Graph

Search for Another Location

Airport or City:

Trip Planner

Search our weather history database for the weather conditions in past years. The results will help you decide how hot, cold, wet, or windy it might be!

Date:

Astronomy

Feb. 09, 2014 Rise Set
Actual Time 6:55 AM MST 5:23 PM MST
Civil Twilight 6:27 AM MST 5:51 PM MST
Nautical Twilight 5:55 AM MST 6:23 PM MST
Astronomical Twilight 5:23 AM MST 6:55 PM MST
Moon 1:05 PM MST (2/9) 3:03 AM MST (2/9)
Length of Visible Light 11h 24m
Length of Day
10h 27m
Waxing Gibbous, 77% of the Moon is Illuminated
Feb 9
Waxing Gibbous
Feb 14
Full
Feb 22
Last Quarter
Mar 1
New
Mar 8
First Quarter

Hourly Weather History & Observations

Time (MST) Temp. Windchill Dew Point Humidity Pressure Visibility Wind Dir Wind Speed Gust Speed Precip Events Conditions
12:15 AM 18.1 °F 7.9 °F 15.8 °F 91% 30.06 in 10.0 mi East 8.1 mph - N/A   Overcast
12:35 AM 18.1 °F 6.3 °F 15.8 °F 91% 30.06 in 10.0 mi East 10.4 mph - N/A   Overcast
12:55 AM 18.1 °F 6.3 °F 15.8 °F 91% 30.05 in 10.0 mi East 10.4 mph - N/A   Overcast
1:15 AM 18.0 °F 6.9 °F 15.8 °F 91% 30.05 in 10.0 mi East 9.2 mph - N/A   Overcast
1:35 AM 17.6 °F 6.4 °F 15.6 °F 92% 30.05 in 10.0 mi East 9.2 mph - N/A   Overcast
1:55 AM 17.6 °F 5.7 °F 15.8 °F 93% 30.04 in 7.0 mi East 10.4 mph - N/A   Overcast
2:15 AM 17.2 °F 6.0 °F 15.4 °F 93% 30.04 in 7.0 mi East 9.2 mph - N/A   Overcast
2:35 AM 17.4 °F 7.1 °F 15.6 °F 93% 30.04 in 7.0 mi East 8.1 mph - N/A   Overcast
2:55 AM 17.2 °F 6.0 °F 15.4 °F 93% 30.02 in 7.0 mi East 9.2 mph - N/A   Overcast
3:15 AM 16.5 °F 6.0 °F 14.9 °F 93% 30.03 in 5.0 mi ENE 8.1 mph - N/A   Overcast
3:35 AM 14.9 °F 3.1 °F 13.6 °F 95% 30.03 in 7.0 mi NE 9.2 mph - N/A   Overcast
3:55 AM 14.4 °F 2.4 °F 12.9 °F 94% 30.03 in 7.0 mi NE 9.2 mph - N/A   Overcast
4:15 AM 14.4 °F 3.3 °F 12.9 °F 94% 30.03 in 5.0 mi NE 8.1 mph - N/A   Overcast
4:35 AM 14.0 °F 2.9 °F 12.6 °F 94% 30.03 in 4.0 mi ENE 8.1 mph - N/A   Overcast
4:55 AM 13.6 °F 0.7 °F 12.2 °F 94% 30.03 in 4.0 mi ENE 10.4 mph - N/A   Overcast
5:15 AM 13.5 °F 0.5 °F 11.8 °F 93% 30.03 in 2.5 mi ENE 10.4 mph - N/A   Overcast
5:35 AM 13.1 °F -0.7 °F 11.3 °F 93% 30.02 in 2.5 mi ENE 11.5 mph - N/A   Overcast
5:55 AM 12.9 °F 0.7 °F 11.3 °F 93% 30.04 in 2.5 mi East 9.2 mph - N/A   Overcast
6:15 AM 12.9 °F 0.7 °F 11.3 °F 93% 30.02 in 2.0 mi East 9.2 mph - N/A   Overcast
6:35 AM 13.1 °F -0.7 °F 11.3 °F 93% 30.00 in 2.0 mi East 11.5 mph - N/A   Overcast
6:55 AM 13.1 °F 0.1 °F 11.3 °F 93% 30.00 in 1.8 mi East 10.4 mph - N/A   Overcast
7:15 AM 13.1 °F -2.0 °F 11.3 °F 93% 30.00 in 1.2 mi East 13.8 mph - N/A Snow Light Snow
7:35 AM 12.9 °F -0.9 °F 11.1 °F 93% 30.02 in 2.0 mi East 11.5 mph - N/A   Overcast
7:55 AM - - - N/A% 30.03 in 1.8 mi East 9.2 mph - N/A   Unknown
8:15 AM - - - N/A% 30.04 in 2.0 mi East 9.2 mph - N/A   Unknown
8:35 AM - - - N/A% 30.05 in 3.0 mi East 9.2 mph - N/A   Overcast
8:55 AM - - - N/A% 30.06 in 2.5 mi ENE 12.7 mph - N/A   Overcast
9:15 AM - - - N/A% 30.05 in 2.5 mi East 15.0 mph - N/A   Unknown
9:35 AM - - - N/A% 30.04 in 1.8 mi East 12.7 mph - N/A   Unknown
9:55 AM - - - N/A% 30.04 in 1.5 mi East 13.8 mph - N/A   Unknown
10:15 AM - - - N/A% 30.04 in 1.5 mi East 15.0 mph - N/A   Unknown
10:35 AM - - - N/A% 30.05 in 1.8 mi ENE 12.7 mph - N/A   Unknown
10:55 AM - - - N/A% 30.04 in 2.5 mi ENE 13.8 mph - N/A   Unknown
11:15 AM - - - N/A% 30.05 in 3.0 mi East 11.5 mph - N/A   Unknown
11:35 AM - - - N/A% 30.05 in 2.5 mi ENE 11.5 mph - N/A   Unknown
11:55 AM - - - N/A% 30.02 in 4.0 mi East 13.8 mph - N/A   Unknown
12:15 PM - - - N/A% 30.02 in 4.0 mi East 12.7 mph - N/A   Unknown
12:35 PM - - - N/A% 30.01 in 4.0 mi ESE 12.7 mph - N/A   Unknown
12:55 PM - - - N/A% 30.00 in 7.0 mi East 12.7 mph - N/A   Unknown
1:15 PM 15.8 °F 2.7 °F 10.8 °F 80% 30.01 in 7.0 mi East 11.5 mph - N/A   Overcast
1:35 PM 15.8 °F 2.1 °F 10.8 °F 80% 30.01 in 4.0 mi East 12.7 mph - N/A Snow Light Snow
1:55 PM 14.5 °F - 10.0 °F 82% 30.01 in 3.0 mi North - - N/A Snow Light Snow
2:15 PM 13.5 °F -0.9 °F 9.3 °F 84% 30.02 in 4.0 mi ENE 12.7 mph - N/A Snow Light Snow
2:35 PM 13.1 °F -2.6 °F 9.3 °F 85% 30.00 in 4.0 mi ENE 15.0 mph - N/A Snow Light Snow
2:55 PM 13.3 °F -1.8 °F 9.3 °F 84% 30.01 in 5.0 mi East 13.8 mph - N/A Snow Light Snow
3:15 PM 13.1 °F -2.0 °F 9.1 °F 84% 30.03 in 7.0 mi ENE 13.8 mph - N/A   Overcast
3:35 PM 12.7 °F -1.8 °F 9.1 °F 86% 30.01 in 5.0 mi East 12.7 mph - N/A Snow Light Snow
3:55 PM 12.2 °F - 8.6 °F 85% 30.03 in 7.0 mi North - - N/A Snow Light Snow
4:15 PM 12.2 °F - 8.6 °F 85% 30.04 in 5.0 mi North - - N/A Snow Light Snow
4:35 PM 11.8 °F -2.3 °F 8.4 °F 86% 30.03 in 4.0 mi East 11.5 mph - N/A Snow Light Snow
4:55 PM 11.3 °F -2.2 °F 8.4 °F 88% 30.04 in 5.0 mi ENE 10.4 mph - N/A Snow Light Snow
5:15 PM 11.1 °F -2.4 °F 8.2 °F 88% 30.06 in 5.0 mi ENE 10.4 mph - N/A Snow Light Snow
5:35 PM 11.1 °F -0.6 °F 8.2 °F 88% 30.06 in 5.0 mi ENE 8.1 mph - N/A Snow Light Snow
5:55 PM 10.8 °F -3.6 °F 7.7 °F 87% 30.07 in 7.0 mi East 11.5 mph - N/A Snow Light Snow
6:15 PM 10.4 °F -4.1 °F 7.7 °F 89% 30.08 in 10.0 mi East 11.5 mph - N/A Snow Light Snow
6:35 PM 10.4 °F - 7.5 °F 88% 30.08 in 10.0 mi North - - N/A Snow Light Snow
6:55 PM 10.4 °F - 7.5 °F 88% 30.07 in 10.0 mi North - - N/A   Overcast
7:15 PM 10.2 °F -2.7 °F 7.3 °F 88% 30.08 in 10.0 mi East 9.2 mph - N/A   Overcast
7:35 PM 10.2 °F -0.6 °F 7.3 °F 88% 30.10 in 10.0 mi East 6.9 mph - N/A   Overcast
7:55 PM 10.4 °F 2.2 °F 7.5 °F 88% 30.10 in 10.0 mi East 4.6 mph - N/A Snow Light Snow
8:15 PM 10.4 °F -1.5 °F 7.5 °F 88% 30.11 in 10.0 mi East 8.1 mph - N/A   Overcast
8:35 PM 10.4 °F -1.5 °F 7.5 °F 88% 30.11 in 10.0 mi East 8.1 mph - N/A Snow Light Snow
8:55 PM 10.4 °F -3.3 °F 7.7 °F 89% 30.09 in 10.0 mi East 10.4 mph - N/A Snow Light Snow
9:15 PM 10.4 °F -2.4 °F 7.5 °F 88% 30.10 in 10.0 mi East 9.2 mph - N/A   Overcast
9:35 PM 10.2 °F -1.7 °F 7.5 °F 89% 30.11 in 7.0 mi East 8.1 mph - N/A Snow Light Snow
9:55 PM 10.4 °F -2.4 °F 7.5 °F 88% 30.11 in 7.0 mi ENE 9.2 mph - N/A Snow Light Snow
10:15 PM 10.4 °F -2.4 °F 7.5 °F 88% 30.10 in 10.0 mi East 9.2 mph - N/A Snow Light Snow
10:35 PM 10.2 °F -1.7 °F 7.3 °F 88% 30.11 in 10.0 mi East 8.1 mph - N/A Snow Light Snow
10:55 PM 10.2 °F -2.7 °F 7.5 °F 89% 30.09 in 10.0 mi East 9.2 mph - N/A   Overcast
11:15 PM 10.4 °F -1.5 °F 7.5 °F 88% 30.09 in 10.0 mi East 8.1 mph - N/A   Overcast
11:35 PM 10.4 °F 0.8 °F 7.5 °F 88% 30.09 in 10.0 mi East 5.8 mph - N/A   Overcast
11:55 PM 10.4 °F -0.4 °F 7.5 °F 88% 30.10 in 10.0 mi ENE 6.9 mph - N/A   Overcast